Time,TemperatureF,DewpointF,PressureIn,WindDirection,WindDirectionDegrees,WindSpeedMPH,WindSpeedGustMPH,Humidity,HourlyPrecipIn,Conditions,Clouds,dailyrainin,SoftwareType,DateUTC
2014-01-03 00:00:00,17.6,12.2,30.06,North,354,11.0,12.0,79,0.00,,SKC,0.00,VWS V14.01,2014-01-03 05:00:00,
2014-01-03 00:01:00,17.6,12.2,30.06,West,281,6.0,14.0,79,0.00,,SKC,0.00,VWS V14.01,2014-01-03 05:01:00,
2014-01-03 00:06:00,17.5,12.1,30.06,NNW,344,19.0,23.0,79,0.00,,SKC,0.00,VWS V14.01,2014-01-03 05:06:00,
2014-01-03 00:11:00,17.4,12.0,30.06,NNW,345,5.0,23.0,79,0.00,,SKC,0.00,VWS V14.01,2014-01-03 05:11:00,
2014-01-03 00:16:00,17.4,12.3,30.06,NNE,26,14.0,23.0,80,0.00,,SKC,0.00,VWS V14.01,2014-01-03 05:16:00,
2014-01-03 00:21:00,17.2,12.1,30.06,NW,304,8.0,23.0,80,0.00,,SKC,0.00,VWS V14.01,2014-01-03 05:21:00,
2014-01-03 00:26:00,17.1,12.3,30.06,West,273,2.0,24.0,81,0.00,,SKC,0.00,VWS V14.01,2014-01-03 05:26:00,
2014-01-03 00:30:00,16.9,12.4,30.06,WNW,295,11.0,24.0,82,0.00,,SKC,0.00,VWS V14.01,2014-01-03 05:30:00,
2014-01-03 00:31:00,16.9,12.6,30.06,NW,321,6.0,18.0,83,0.00,,SKC,0.00,VWS V14.01,2014-01-03 05:31:00,
2014-01-03 00:36:00,16.6,13.1,30.07,NE,39,7.0,23.0,86,0.00,,SKC,0.00,VWS V14.01,2014-01-03 05:36:00,
2014-01-03 00:41:00,16.4,12.9,30.07,WNW,297,12.0,23.0,86,0.00,,SKC,0.00,VWS V14.01,2014-01-03 05:41:00,
2014-01-03 00:46:00,16.3,13.1,30.07,NW,321,14.0,27.0,87,0.00,,SKC,0.00,VWS V14.01,2014-01-03 05:46:00,
2014-01-03 00:51:00,16.3,13.1,30.08,NNW,337,11.0,27.0,87,0.00,,SKC,0.00,VWS V14.01,2014-01-03 05:51:00,
2014-01-03 00:56:00,16.2,13.3,30.08,NW,324,11.0,27.0,88,0.00,,SKC,0.00,VWS V14.01,2014-01-03 05:56:00,
2014-01-03 01:00:00,16.2,13.3,30.08,NNW,335,16.0,27.0,88,0.00,,SKC,0.00,VWS V14.01,2014-01-03 06:00:00,
2014-01-03 01:01:00,16.2,13.5,30.09,NNW,334,15.0,19.0,89,0.00,,SKC,0.00,VWS V14.01,2014-01-03 06:01:00,
2014-01-03 01:06:00,16.1,13.4,30.09,North,4,13.0,21.0,89,0.00,,SKC,0.00,VWS V14.01,2014-01-03 06:06:00,
2014-01-03 01:11:00,16.0,13.3,30.10,North,359,18.0,21.0,89,0.00,,SKC,0.00,VWS V14.01,2014-01-03 06:11:00,
2014-01-03 01:16:00,15.9,12.7,30.10,North,355,11.0,21.0,87,0.00,,SKC,0.00,VWS V14.01,2014-01-03 06:16:00,
2014-01-03 01:21:00,15.9,11.9,30.10,North,352,8.0,21.0,84,0.00,,SKC,0.00,VWS V14.01,2014-01-03 06:21:00,
2014-01-03 01:26:00,15.9,11.4,30.10,NW,324,10.0,21.0,82,0.00,,SKC,0.00,VWS V14.01,2014-01-03 06:26:00,
2014-01-03 01:30:00,15.8,11.0,30.10,North,356,14.0,21.0,81,0.00,,SKC,0.00,VWS V14.01,2014-01-03 06:30:00,
2014-01-03 01:31:00,15.7,10.6,30.10,North,349,16.0,19.0,80,0.00,,SKC,0.00,VWS V14.01,2014-01-03 06:31:00,
2014-01-03 01:36:00,15.6,10.0,30.10,NE,47,13.0,25.0,78,0.00,,SKC,0.00,VWS V14.01,2014-01-03 06:36:00,
2014-01-03 01:41:00,15.4,9.8,30.11,NNW,340,8.0,25.0,78,0.00,,SKC,0.00,VWS V14.01,2014-01-03 06:41:00,
2014-01-03 01:46:00,15.3,9.4,30.11,NNW,339,21.0,25.0,77,0.00,,SKC,0.00,VWS V14.01,2014-01-03 06:46:00,
2014-01-03 01:51:00,15.1,9.2,30.12,NNW,330,10.0,25.0,77,0.00,,SKC,0.00,VWS V14.01,2014-01-03 06:51:00,
2014-01-03 01:56:00,15.0,9.4,30.13,NNE,17,12.0,25.0,78,0.00,,SKC,0.00,VWS V14.01,2014-01-03 06:56:00,
2014-01-03 02:00:00,15.0,9.4,30.14,NE,41,9.0,25.0,78,0.00,,SKC,0.00,VWS V14.01,2014-01-03 07:00:00,
2014-01-03 02:01:00,15.0,9.7,30.14,NNW,329,3.0,12.0,79,0.00,,SKC,0.00,VWS V14.01,2014-01-03 07:01:00,
2014-01-03 02:06:00,14.9,9.3,30.14,North,354,16.0,20.0,78,0.00,,SKC,0.00,VWS V14.01,2014-01-03 07:06:00,
2014-01-03 02:11:00,14.8,9.2,30.15,North,10,8.0,23.0,78,0.00,,SKC,0.00,VWS V14.01,2014-01-03 07:11:00,
2014-01-03 02:16:00,14.7,8.8,30.15,NNW,343,14.0,23.0,77,0.00,,SKC,0.00,VWS V14.01,2014-01-03 07:16:00,
2014-01-03 02:21:00,14.7,9.4,30.15,WNW,292,6.0,23.0,79,0.00,,SKC,0.00,VWS V14.01,2014-01-03 07:21:00,
2014-01-03 02:26:00,14.5,9.5,30.16,NW,314,5.0,23.0,80,0.00,,SKC,0.00,VWS V14.01,2014-01-03 07:26:00,
2014-01-03 02:30:00,14.4,9.4,30.16,NNW,347,9.0,23.0,80,0.00,,SKC,0.00,VWS V14.01,2014-01-03 07:30:00,
2014-01-03 02:31:00,14.4,9.6,30.17,NNE,15,10.0,13.0,81,0.00,,SKC,0.00,VWS V14.01,2014-01-03 07:31:00,
2014-01-03 02:36:00,14.3,9.6,30.17,NNW,329,16.0,22.0,81,0.00,,SKC,0.00,VWS V14.01,2014-01-03 07:36:00,
2014-01-03 02:41:00,14.3,9.3,30.16,WNW,300,6.0,22.0,80,0.00,,SKC,0.00,VWS V14.01,2014-01-03 07:41:00,
2014-01-03 02:46:00,14.2,9.2,30.17,NNE,31,13.0,22.0,80,0.00,,SKC,0.00,VWS V14.01,2014-01-03 07:46:00,
2014-01-03 02:51:00,14.0,9.0,30.17,WNW,291,6.0,26.0,80,0.00,,SKC,0.00,VWS V14.01,2014-01-03 07:51:00,
2014-01-03 02:56:00,13.9,8.9,30.17,North,357,16.0,26.0,80,0.00,,SKC,0.00,VWS V14.01,2014-01-03 07:56:00,
2014-01-03 03:00:00,13.9,8.9,30.18,NNW,346,11.0,26.0,80,0.00,,SKC,0.00,VWS V14.01,2014-01-03 08:00:00,
2014-01-03 03:01:00,13.9,8.9,30.18,NW,326,5.0,16.0,80,0.00,,SKC,0.00,VWS V14.01,2014-01-03 08:01:00,
2014-01-03 03:06:00,13.8,9.1,30.18,NNW,333,11.0,19.0,81,0.00,,SKC,0.00,VWS V14.01,2014-01-03 08:06:00,
2014-01-03 03:11:00,13.8,8.8,30.18,NW,317,15.0,22.0,80,0.00,,SKC,0.00,VWS V14.01,2014-01-03 08:11:00,
2014-01-03 03:16:00,13.7,8.7,30.18,NW,319,13.0,23.0,80,0.00,,SKC,0.00,VWS V14.01,2014-01-03 08:16:00,
2014-01-03 03:21:00,13.7,8.7,30.19,NNW,345,15.0,23.0,80,0.00,,SKC,0.00,VWS V14.01,2014-01-03 08:21:00,
2014-01-03 03:26:00,13.7,8.4,30.19,NNE,16,10.0,23.0,79,0.00,,SKC,0.00,VWS V14.01,2014-01-03 08:26:00,
2014-01-03 03:30:00,13.7,8.4,30.19,NW,313,8.0,23.0,79,0.00,,SKC,0.00,VWS V14.01,2014-01-03 08:30:00,
2014-01-03 03:31:00,13.7,8.4,30.19,NNE,18,7.0,13.0,79,0.00,,SKC,0.00,VWS V14.01,2014-01-03 08:31:00,
2014-01-03 03:36:00,13.7,7.8,30.19,NW,307,7.0,22.0,77,0.00,,SKC,0.00,VWS V14.01,2014-01-03 08:36:00,
2014-01-03 03:41:00,13.7,7.8,30.20,NNE,19,12.0,24.0,77,0.00,,SKC,0.00,VWS V14.01,2014-01-03 08:41:00,
2014-01-03 03:46:00,13.7,7.8,30.20,NNW,336,7.0,24.0,77,0.00,,SKC,0.00,VWS V14.01,2014-01-03 08:46:00,
2014-01-03 03:51:00,13.6,7.7,30.21,NNW,338,12.0,24.0,77,0.00,,SKC,0.00,VWS V14.01,2014-01-03 08:51:00,
2014-01-03 03:56:00,13.6,7.7,30.21,North,10,21.0,29.0,77,0.00,,SKC,0.00,VWS V14.01,2014-01-03 08:56:00,
2014-01-03 04:00:00,13.6,7.7,30.21,NNW,340,12.0,29.0,77,0.00,,SKC,0.00,VWS V14.01,2014-01-03 09:00:00,
2014-01-03 04:01:00,13.5,7.7,30.21,NW,318,8.0,16.0,77,0.00,,SKC,0.00,VWS V14.01,2014-01-03 09:01:00,
2014-01-03 04:06:00,13.4,7.3,30.21,NNW,334,13.0,29.0,76,0.00,,SKC,0.00,VWS V14.01,2014-01-03 09:06:00,
2014-01-03 04:11:00,13.4,7.3,30.22,NW,326,14.0,29.0,76,0.00,,SKC,0.00,VWS V14.01,2014-01-03 09:11:00,
2014-01-03 04:16:00,13.3,7.4,30.22,NNW,330,10.0,29.0,77,0.00,,SKC,0.00,VWS V14.01,2014-01-03 09:16:00,
2014-01-03 04:21:00,13.2,7.3,30.22,North,353,10.0,29.0,77,0.00,,SKC,0.00,VWS V14.01,2014-01-03 09:21:00,
2014-01-03 04:26:00,13.1,7.3,30.23,NW,326,8.0,29.0,77,0.00,,SKC,0.00,VWS V14.01,2014-01-03 09:26:00,
2014-01-03 04:30:00,13.1,7.3,30.22,NW,325,16.0,29.0,77,0.00,,SKC,0.00,VWS V14.01,2014-01-03 09:30:00,
2014-01-03 04:31:00,13.1,7.3,30.22,NNW,333,12.0,19.0,77,0.00,,SKC,0.00,VWS V14.01,2014-01-03 09:31:00,
2014-01-03 04:36:00,13.0,6.9,30.22,NNW,340,18.0,21.0,76,0.00,,SKC,0.00,VWS V14.01,2014-01-03 09:36:00,
2014-01-03 04:41:00,12.8,7.0,30.23,NNW,333,9.0,21.0,77,0.00,,SKC,0.00,VWS V14.01,2014-01-03 09:41:00,
2014-01-03 04:46:00,12.8,7.0,30.24,NNE,15,11.0,22.0,77,0.00,,SKC,0.00,VWS V14.01,2014-01-03 09:46:00,
2014-01-03 04:51:00,12.8,6.7,30.24,NW,326,6.0,22.0,76,0.00,,SKC,0.00,VWS V14.01,2014-01-03 09:51:00,
2014-01-03 04:56:00,12.7,6.6,30.25,NW,316,14.0,22.0,76,0.00,,SKC,0.00,VWS V14.01,2014-01-03 09:56:00,
2014-01-03 05:00:00,12.7,6.9,30.25,NW,316,5.0,22.0,77,0.00,,SKC,0.00,VWS V14.01,2014-01-03 10:00:00,
2014-01-03 05:01:00,12.7,6.9,30.25,NNW,329,4.0,10.0,77,0.00,,SKC,0.00,VWS V14.01,2014-01-03 10:01:00,
2014-01-03 05:06:00,12.6,6.5,30.25,NW,326,6.0,25.0,76,0.00,,SKC,0.00,VWS V14.01,2014-01-03 10:06:00,
2014-01-03 05:11:00,12.6,6.5,30.26,NNW,343,12.0,25.0,76,0.00,,SKC,0.00,VWS V14.01,2014-01-03 10:11:00,
2014-01-03 05:16:00,12.5,6.1,30.27,NNW,343,12.0,25.0,75,0.00,,SKC,0.00,VWS V14.01,2014-01-03 10:16:00,
2014-01-03 05:21:00,12.5,6.4,30.27,South,186,4.0,25.0,76,0.00,,SKC,0.00,VWS V14.01,2014-01-03 10:21:00,
2014-01-03 05:26:00,12.4,6.3,30.27,NNW,347,11.0,25.0,76,0.00,,SKC,0.00,VWS V14.01,2014-01-03 10:26:00,
2014-01-03 05:30:00,12.3,5.9,30.27,North,351,7.0,25.0,75,0.00,,SKC,0.00,VWS V14.01,2014-01-03 10:30:00,
2014-01-03 05:31:00,12.3,6.2,30.26,NNE,15,17.0,17.0,76,0.00,,SKC,0.00,VWS V14.01,2014-01-03 10:31:00,
2014-01-03 05:36:00,12.2,6.1,30.26,North,356,11.0,22.0,76,0.00,,SKC,0.00,VWS V14.01,2014-01-03 10:36:00,
2014-01-03 05:41:00,12.1,6.0,30.28,NNW,328,9.0,22.0,76,0.00,,SKC,0.00,VWS V14.01,2014-01-03 10:41:00,
2014-01-03 05:46:00,12.0,5.9,30.28,NE,41,8.0,24.0,76,0.00,,SKC,0.00,VWS V14.01,2014-01-03 10:46:00,
2014-01-03 05:51:00,12.0,5.9,30.29,NNW,328,7.0,24.0,76,0.00,,SKC,0.00,VWS V14.01,2014-01-03 10:51:00,
2014-01-03 05:56:00,11.9,5.8,30.29,NNE,26,17.0,24.0,76,0.00,,SKC,0.00,VWS V14.01,2014-01-03 10:56:00,
2014-01-03 06:00:00,11.9,6.1,30.29,NNW,342,15.0,24.0,77,0.00,,SKC,0.00,VWS V14.01,2014-01-03 11:00:00,
2014-01-03 06:01:00,11.9,5.8,30.29,NW,311,11.0,17.0,76,0.00,,SKC,0.00,VWS V14.01,2014-01-03 11:01:00,
2014-01-03 06:06:00,11.9,5.8,30.30,NNE,19,8.0,17.0,76,0.00,,SKC,0.00,VWS V14.01,2014-01-03 11:06:00,
2014-01-03 06:10:00,11.9,6.1,30.30,North,353,7.0,17.0,77,0.00,,SKC,0.00,VWS V14.01,2014-01-03 11:10:00,
2014-01-03 06:15:00,11.8,6.0,30.30,NNW,346,12.0,17.0,77,0.00,,SKC,0.00,VWS V14.01,2014-01-03 11:15:00,
2014-01-03 06:20:00,11.8,6.0,30.31,NNW,338,9.0,17.0,77,0.00,,SKC,0.00,VWS V14.01,2014-01-03 11:20:00,
2014-01-03 06:25:00,11.8,6.0,30.31,NNW,348,11.0,17.0,77,0.00,,SKC,0.00,VWS V14.01,2014-01-03 11:25:00,
2014-01-03 06:30:00,11.7,5.9,30.31,NNW,330,12.0,14.0,77,0.00,,SKC,0.00,VWS V14.01,2014-01-03 11:30:00,
2014-01-03 06:35:00,11.7,5.9,30.31,North,351,10.0,17.0,77,0.00,,SKC,0.00,VWS V14.01,2014-01-03 11:35:00,
2014-01-03 06:40:00,11.6,6.1,30.31,North,353,8.0,17.0,78,0.00,,SKC,0.00,VWS V14.01,2014-01-03 11:40:00,
2014-01-03 06:45:00,11.6,6.1,30.31,NNW,334,12.0,19.0,78,0.00,,SKC,0.00,VWS V14.01,2014-01-03 11:45:00,
2014-01-03 06:50:00,11.4,5.9,30.31,WNW,300,10.0,19.0,78,0.00,,SKC,0.00,VWS V14.01,2014-01-03 11:50:00,
2014-01-03 06:55:00,11.4,5.9,30.31,North,355,14.0,19.0,78,0.00,,SKC,0.00,VWS V14.01,2014-01-03 11:55:00,
2014-01-03 07:00:00,11.3,5.8,30.31,NNW,348,9.0,17.0,78,0.00,,SKC,0.00,VWS V14.01,2014-01-03 12:00:00,
2014-01-03 07:05:00,11.2,5.7,30.32,NNW,334,19.0,19.0,78,0.00,,SKC,0.00,VWS V14.01,2014-01-03 12:05:00,
2014-01-03 07:10:00,11.2,5.4,30.32,North,6,9.0,22.0,77,0.00,,SKC,0.00,VWS V14.01,2014-01-03 12:10:00,
2014-01-03 07:15:00,11.1,5.3,30.32,North,359,11.0,22.0,77,0.00,,SKC,0.00,VWS V14.01,2014-01-03 12:15:00,
2014-01-03 07:20:00,11.0,5.5,30.32,NNW,348,11.0,22.0,78,0.00,,SKC,0.00,VWS V14.01,2014-01-03 12:20:00,
2014-01-03 07:25:00,11.0,5.5,30.32,NNW,342,14.0,22.0,78,0.00,,SKC,0.00,VWS V14.01,2014-01-03 12:25:00,
2014-01-03 07:30:00,10.9,5.4,30.33,NNW,347,6.0,16.0,78,0.00,,SKC,0.00,VWS V14.01,2014-01-03 12:30:00,
2014-01-03 07:35:00,10.9,5.4,30.33,North,3,13.0,17.0,78,0.00,,SKC,0.00,VWS V14.01,2014-01-03 12:35:00,
2014-01-03 07:40:00,10.9,5.4,30.33,NNW,344,9.0,18.0,78,0.00,,SKC,0.00,VWS V14.01,2014-01-03 12:40:00,
2014-01-03 07:45:00,10.8,5.3,30.34,NNW,341,16.0,18.0,78,0.00,,SKC,0.00,VWS V14.01,2014-01-03 12:45:00,
2014-01-03 07:50:00,10.7,5.2,30.34,North,349,9.0,18.0,78,0.00,,SKC,0.00,VWS V14.01,2014-01-03 12:50:00,
2014-01-03 07:55:00,10.6,5.1,30.34,NW,321,10.0,18.0,78,0.00,,SKC,0.00,VWS V14.01,2014-01-03 12:55:00,
2014-01-03 08:00:00,10.6,5.1,30.34,NNW,341,5.0,14.0,78,0.00,,SKC,0.00,VWS V14.01,2014-01-03 13:00:00,
2014-01-03 08:05:00,10.6,5.1,30.35,NNW,345,10.0,21.0,78,0.00,,SKC,0.00,VWS V14.01,2014-01-03 13:05:00,
2014-01-03 08:10:00,10.6,5.1,30.36,West,270,2.0,21.0,78,0.00,,SKC,0.00,VWS V14.01,2014-01-03 13:10:00,
2014-01-03 08:15:00,10.6,5.1,30.36,NNE,30,3.0,21.0,78,0.00,,SKC,0.00,VWS V14.01,2014-01-03 13:15:00,
2014-01-03 08:20:00,10.6,5.1,30.36,NW,322,8.0,21.0,78,0.00,,SKC,0.00,VWS V14.01,2014-01-03 13:20:00,
2014-01-03 08:25:00,10.7,5.2,30.36,NNW,328,8.0,21.0,78,0.00,,SKC,0.00,VWS V14.01,2014-01-03 13:25:00,
2014-01-03 08:30:00,10.7,5.2,30.37,NNW,339,7.0,13.0,78,0.00,,SKC,0.00,VWS V14.01,2014-01-03 13:30:00,
2014-01-03 08:35:00,10.8,5.3,30.37,ENE,61,4.0,14.0,78,0.00,,SKC,0.00,VWS V14.01,2014-01-03 13:35:00,
2014-01-03 08:40:00,10.9,5.4,30.37,NNE,23,6.0,15.0,78,0.00,,SKC,0.00,VWS V14.01,2014-01-03 13:40:00,
2014-01-03 08:45:00,11.0,5.5,30.38,NNE,20,11.0,15.0,78,0.00,,SKC,0.00,VWS V14.01,2014-01-03 13:45:00,
2014-01-03 08:50:00,11.2,5.7,30.38,NNW,333,9.0,15.0,78,0.00,,SKC,0.00,VWS V14.01,2014-01-03 13:50:00,
2014-01-03 08:55:00,11.3,5.5,30.38,NNW,346,9.0,15.0,77,0.00,,SKC,0.00,VWS V14.01,2014-01-03 13:55:00,
2014-01-03 09:00:00,11.3,5.5,30.38,NNW,330,6.0,9.0,77,0.00,,SKC,0.00,VWS V14.01,2014-01-03 14:00:00,
2014-01-03 09:05:00,11.4,5.6,30.38,NNW,338,6.0,16.0,77,0.00,,SKC,0.00,VWS V14.01,2014-01-03 14:05:00,
2014-01-03 09:10:00,11.5,5.7,30.38,NNW,335,9.0,17.0,77,0.00,,SKC,0.00,VWS V14.01,2014-01-03 14:10:00,
2014-01-03 09:15:00,11.6,5.5,30.38,NNW,336,4.0,20.0,76,0.00,,SKC,0.00,VWS V14.01,2014-01-03 14:15:00,
2014-01-03 09:20:00,11.7,5.6,30.39,NNW,342,11.0,20.0,76,0.00,,SKC,0.00,VWS V14.01,2014-01-03 14:20:00,
2014-01-03 09:25:00,11.9,5.8,30.39,NNE,27,15.0,20.0,76,0.00,,SKC,0.00,VWS V14.01,2014-01-03 14:25:00,
2014-01-03 09:30:00,11.8,5.4,30.39,NNW,330,8.0,13.0,75,0.00,,SKC,0.00,VWS V14.01,2014-01-03 14:30:00,
2014-01-03 09:35:00,11.9,5.8,30.40,NNW,346,13.0,16.0,76,0.00,,SKC,0.00,VWS V14.01,2014-01-03 14:35:00,
2014-01-03 09:40:00,12.0,5.6,30.41,NNW,329,5.0,16.0,75,0.00,,SKC,0.00,VWS V14.01,2014-01-03 14:40:00,
2014-01-03 09:45:00,12.1,5.7,30.41,NW,325,8.0,19.0,75,0.00,,SKC,0.00,VWS V14.01,2014-01-03 14:45:00,
2014-01-03 09:50:00,12.2,5.8,30.42,NNW,339,8.0,19.0,75,0.00,,SKC,0.00,VWS V14.01,2014-01-03 14:50:00,
2014-01-03 09:55:00,12.3,5.9,30.42,North,4,16.0,19.0,75,0.00,,SKC,0.00,VWS V14.01,2014-01-03 14:55:00,
2014-01-03 10:00:00,12.4,6.0,30.42,NNW,330,18.0,18.0,75,0.00,,SKC,0.00,VWS V14.01,2014-01-03 15:00:00,
2014-01-03 10:05:00,12.5,5.8,30.42,NNE,29,4.0,18.0,74,0.00,,SKC,0.00,VWS V14.01,2014-01-03 15:05:00,
2014-01-03 10:10:00,12.7,6.3,30.43,NNW,346,6.0,19.0,75,0.00,,SKC,0.00,VWS V14.01,2014-01-03 15:10:00,
2014-01-03 10:15:00,13.1,6.4,30.43,NNW,334,6.0,19.0,74,0.00,,SKC,0.00,VWS V14.01,2014-01-03 15:15:00,
2014-01-03 10:20:00,13.3,6.3,30.44,NNW,346,5.0,19.0,73,0.00,,SKC,0.00,VWS V14.01,2014-01-03 15:20:00,
2014-01-03 10:25:00,13.5,6.5,30.43,NNW,336,9.0,19.0,73,0.00,,SKC,0.00,VWS V14.01,2014-01-03 15:25:00,
2014-01-03 10:30:00,13.7,6.7,30.44,NE,41,14.0,14.0,73,0.00,,SKC,0.00,VWS V14.01,2014-01-03 15:30:00,
2014-01-03 10:35:00,13.6,6.3,30.44,NNE,17,5.0,20.0,72,0.00,,SKC,0.00,VWS V14.01,2014-01-03 15:35:00,
2014-01-03 10:40:00,13.7,6.4,30.44,WNW,303,3.0,20.0,72,0.00,,SKC,0.00,VWS V14.01,2014-01-03 15:40:00,
2014-01-03 10:45:00,14.1,6.8,30.45,NW,306,2.0,20.0,72,0.00,,SKC,0.00,VWS V14.01,2014-01-03 15:45:00,
2014-01-03 10:50:00,14.4,7.0,30.45,NW,326,10.0,20.0,72,0.00,,SKC,0.00,VWS V14.01,2014-01-03 15:50:00,
2014-01-03 10:55:00,14.5,7.1,30.46,NW,323,3.0,20.0,72,0.00,,SKC,0.00,VWS V14.01,2014-01-03 15:55:00,
2014-01-03 11:00:00,14.5,6.8,30.46,North,8,6.0,10.0,71,0.00,,SKC,0.00,VWS V14.01,2014-01-03 16:00:00,
2014-01-03 11:05:00,14.6,7.2,30.46,NNW,340,7.0,12.0,72,0.00,,SKC,0.00,VWS V14.01,2014-01-03 16:05:00,
2014-01-03 11:10:00,15.0,7.6,30.46,NW,323,8.0,12.0,72,0.00,,SKC,0.00,VWS V14.01,2014-01-03 16:10:00,
2014-01-03 11:15:00,14.9,7.2,30.47,WSW,255,2.0,12.0,71,0.00,,SKC,0.00,VWS V14.01,2014-01-03 16:15:00,
2014-01-03 11:20:00,15.1,7.4,30.47,NW,311,6.0,12.0,71,0.00,,SKC,0.00,VWS V14.01,2014-01-03 16:20:00,
2014-01-03 11:25:00,15.5,7.8,30.46,WSW,255,5.0,12.0,71,0.00,,SKC,0.00,VWS V14.01,2014-01-03 16:25:00,
2014-01-03 11:30:00,15.7,8.0,30.46,SW,224,5.0,9.0,71,0.00,,SKC,0.00,VWS V14.01,2014-01-03 16:30:00,
2014-01-03 11:35:00,15.9,8.2,30.47,North,354,12.0,12.0,71,0.00,,SKC,0.00,VWS V14.01,2014-01-03 16:35:00,
2014-01-03 11:40:00,15.8,7.8,30.47,North,8,3.0,13.0,70,0.00,,SKC,0.00,VWS V14.01,2014-01-03 16:40:00,
2014-01-03 11:45:00,15.8,7.8,30.47,WNW,295,3.0,13.0,70,0.00,,SKC,0.00,VWS V14.01,2014-01-03 16:45:00,
2014-01-03 11:50:00,16.0,8.0,30.48,WSW,246,5.0,13.0,70,0.00,,SKC,0.00,VWS V14.01,2014-01-03 16:50:00,
2014-01-03 11:55:00,16.2,8.1,30.48,WNW,303,1.0,13.0,70,0.00,,SKC,0.00,VWS V14.01,2014-01-03 16:55:00,
2014-01-03 12:00:00,16.3,7.9,30.47,North,1,7.0,9.0,69,0.00,,SKC,0.00,VWS V14.01,2014-01-03 17:00:00,
2014-01-03 12:05:00,16.4,8.0,30.47,SW,224,2.0,13.0,69,0.00,,SKC,0.00,VWS V14.01,2014-01-03 17:05:00,
2014-01-03 12:10:00,16.7,8.6,30.46,NNW,340,4.0,13.0,70,0.00,,SKC,0.00,VWS V14.01,2014-01-03 17:10:00,
2014-01-03 12:15:00,16.9,8.2,30.46,NNW,341,6.0,13.0,68,0.00,,SKC,0.00,VWS V14.01,2014-01-03 17:15:00,
2014-01-03 12:20:00,17.1,9.0,30.46,North,359,3.0,13.0,70,0.00,,SKC,0.00,VWS V14.01,2014-01-03 17:20:00,
2014-01-03 12:25:00,17.0,8.3,30.46,NNW,338,8.0,15.0,68,0.00,,SKC,0.00,VWS V14.01,2014-01-03 17:25:00,
2014-01-03 12:30:00,17.1,8.7,30.46,NW,324,3.0,7.0,69,0.00,,SKC,0.00,VWS V14.01,2014-01-03 17:30:00,
2014-01-03 12:35:00,17.6,9.2,30.46,NNW,346,5.0,9.0,69,0.00,,SKC,0.00,VWS V14.01,2014-01-03 17:35:00,
2014-01-03 12:40:00,17.5,8.4,30.47,NW,317,3.0,11.0,67,0.00,,SKC,0.00,VWS V14.01,2014-01-03 17:40:00,
2014-01-03 12:45:00,18.1,9.3,30.47,WSW,257,1.0,11.0,68,0.00,,SKC,0.00,VWS V14.01,2014-01-03 17:45:00,
2014-01-03 12:50:00,18.3,8.9,30.46,North,353,6.0,11.0,66,0.00,,SKC,0.00,VWS V14.01,2014-01-03 17:50:00,
2014-01-03 12:55:00,18.5,9.1,30.47,NNW,332,8.0,11.0,66,0.00,,SKC,0.00,VWS V14.01,2014-01-03 17:55:00,
2014-01-03 13:00:00,18.4,9.0,30.46,NNW,335,1.0,6.0,66,0.00,,SKC,0.00,VWS V14.01,2014-01-03 18:00:00,
2014-01-03 13:05:00,18.8,9.7,30.46,SSW,197,1.0,6.0,67,0.00,,SKC,0.00,VWS V14.01,2014-01-03 18:05:00,
2014-01-03 13:10:00,18.9,9.4,30.46,NNW,336,2.0,6.0,66,0.00,,SKC,0.00,VWS V14.01,2014-01-03 18:10:00,
2014-01-03 13:15:00,18.8,9.0,30.46,NE,37,2.0,10.0,65,0.00,,SKC,0.00,VWS V14.01,2014-01-03 18:15:00,
2014-01-03 13:20:00,19.0,9.2,30.46,NNW,347,3.0,10.0,65,0.00,,SKC,0.00,VWS V14.01,2014-01-03 18:20:00,
2014-01-03 13:25:00,19.2,9.4,30.46,NNW,338,1.0,10.0,65,0.00,,SKC,0.00,VWS V14.01,2014-01-03 18:25:00,
2014-01-03 13:30:00,19.5,10.3,30.46,North,9,9.0,9.0,67,0.00,,SKC,0.00,VWS V14.01,2014-01-03 18:30:00,
2014-01-03 13:35:00,19.8,10.3,30.46,WNW,295,1.0,9.0,66,0.00,,SKC,0.00,VWS V14.01,2014-01-03 18:35:00,
2014-01-03 13:40:00,20.3,10.1,30.46,NW,320,5.0,9.0,64,0.00,,SKC,0.00,VWS V14.01,2014-01-03 18:40:00,
2014-01-03 13:45:00,20.6,10.4,30.46,NNW,340,12.0,12.0,64,0.00,,SKC,0.00,VWS V14.01,2014-01-03 18:45:00,
2014-01-03 13:50:00,20.6,9.7,30.46,South,172,2.0,12.0,62,0.00,,SKC,0.00,VWS V14.01,2014-01-03 18:50:00,
2014-01-03 13:55:00,21.1,10.1,30.46,WSW,248,1.0,12.0,62,0.00,,SKC,0.00,VWS V14.01,2014-01-03 18:55:00,
2014-01-03 14:00:00,21.2,10.2,30.46,NNW,339,5.0,5.0,62,0.00,,SKC,0.00,VWS V14.01,2014-01-03 19:00:00,
2014-01-03 14:05:00,21.3,10.0,30.46,North,354,11.0,11.0,61,0.00,,SKC,0.00,VWS V14.01,2014-01-03 19:05:00,
2014-01-03 14:10:00,21.1,10.1,30.46,NW,317,2.0,11.0,62,0.00,,SKC,0.00,VWS V14.01,2014-01-03 19:10:00,
2014-01-03 14:15:00,21.3,10.7,30.46,NW,324,4.0,11.0,63,0.00,,SKC,0.00,VWS V14.01,2014-01-03 19:15:00,
2014-01-03 14:20:00,21.5,10.9,30.46,NNW,335,4.0,11.0,63,0.00,,SKC,0.00,VWS V14.01,2014-01-03 19:20:00,
2014-01-03 14:25:00,21.6,9.9,30.47,West,260,5.0,11.0,60,0.00,,SKC,0.00,VWS V14.01,2014-01-03 19:25:00,
2014-01-03 14:30:00,21.8,10.1,30.47,NNW,345,7.0,7.0,60,0.00,,SKC,0.00,VWS V14.01,2014-01-03 19:30:00,
2014-01-03 14:35:00,22.1,10.7,30.47,NW,317,6.0,11.0,61,0.00,,SKC,0.00,VWS V14.01,2014-01-03 19:35:00,
2014-01-03 14:40:00,22.6,10.8,30.47,WSW,255,4.0,11.0,60,0.00,,SKC,0.00,VWS V14.01,2014-01-03 19:40:00,
2014-01-03 14:45:00,22.2,9.7,30.47,SW,222,4.0,11.0,58,0.00,,SKC,0.00,VWS V14.01,2014-01-03 19:45:00,
2014-01-03 14:50:00,22.4,10.6,30.46,South,191,0.0,11.0,60,0.00,,SKC,0.00,VWS V14.01,2014-01-03 19:50:00,
2014-01-03 14:55:00,22.8,11.0,30.46,NW,314,0.0,11.0,60,0.00,,SKC,0.00,VWS V14.01,2014-01-03 19:55:00,
2014-01-03 15:00:00,22.9,10.3,30.46,NW,304,4.0,5.0,58,0.00,,SKC,0.00,VWS V14.01,2014-01-03 20:00:00,
2014-01-03 15:05:00,22.9,11.1,30.46,NW,317,5.0,6.0,60,0.00,,SKC,0.00,VWS V14.01,2014-01-03 20:05:00,
2014-01-03 15:10:00,23.1,10.9,30.46,North,357,5.0,7.0,59,0.00,,SKC,0.00,VWS V14.01,2014-01-03 20:10:00,
2014-01-03 15:15:00,23.2,10.6,30.47,NNW,340,3.0,8.0,58,0.00,,SKC,0.00,VWS V14.01,2014-01-03 20:15:00,
2014-01-03 15:20:00,23.2,10.6,30.47,SW,224,2.0,8.0,58,0.00,,SKC,0.00,VWS V14.01,2014-01-03 20:20:00,
2014-01-03 15:25:00,23.4,10.8,30.46,NNW,335,5.0,8.0,58,0.00,,SKC,0.00,VWS V14.01,2014-01-03 20:25:00,
2014-01-03 15:30:00,23.4,10.8,30.46,West,269,0.0,3.0,58,0.00,,SKC,0.00,VWS V14.01,2014-01-03 20:30:00,
2014-01-03 15:35:00,23.5,10.9,30.46,NW,316,3.0,7.0,58,0.00,,SKC,0.00,VWS V14.01,2014-01-03 20:35:00,
2014-01-03 15:40:00,23.3,11.1,30.46,NNW,328,2.0,8.0,59,0.00,,SKC,0.00,VWS V14.01,2014-01-03 20:40:00,
2014-01-03 15:45:00,23.4,10.8,30.47,NNW,329,3.0,8.0,58,0.00,,SKC,0.00,VWS V14.01,2014-01-03 20:45:00,
2014-01-03 15:50:00,23.5,11.3,30.47,WSW,249,2.0,8.0,59,0.00,,SKC,0.00,VWS V14.01,2014-01-03 20:50:00,
2014-01-03 15:55:00,23.7,10.7,30.47,West,277,1.0,8.0,57,0.00,,SKC,0.00,VWS V14.01,2014-01-03 20:55:00,
2014-01-03 16:00:00,24.4,11.8,30.47,East,80,2.0,2.0,58,0.00,,SKC,0.00,VWS V14.01,2014-01-03 21:00:00,
2014-01-03 16:05:00,24.4,11.0,30.48,NW,314,2.0,7.0,56,0.00,,SKC,0.00,VWS V14.01,2014-01-03 21:05:00,
2014-01-03 16:10:00,24.2,10.8,30.48,NW,317,1.0,7.0,56,0.00,,SKC,0.00,VWS V14.01,2014-01-03 21:10:00,
2014-01-03 16:15:00,23.9,10.5,30.48,NW,319,3.0,7.0,56,0.00,,SKC,0.00,VWS V14.01,2014-01-03 21:15:00,
2014-01-03 16:20:00,24.0,11.0,30.48,NW,319,2.0,7.0,57,0.00,,SKC,0.00,VWS V14.01,2014-01-03 21:20:00,
2014-01-03 16:25:00,24.3,10.9,30.48,West,259,1.0,7.0,56,0.00,,SKC,0.00,VWS V14.01,2014-01-03 21:25:00,
2014-01-03 16:30:00,24.3,10.9,30.48,NNE,13,3.0,4.0,56,0.00,,SKC,0.00,VWS V14.01,2014-01-03 21:30:00,
2014-01-03 16:35:00,24.1,11.1,30.48,NNW,343,3.0,7.0,57,0.00,,SKC,0.00,VWS V14.01,2014-01-03 21:35:00,
2014-01-03 16:40:00,24.0,11.0,30.48,North,11,3.0,7.0,57,0.00,,SKC,0.00,VWS V14.01,2014-01-03 21:40:00,
2014-01-03 16:45:00,23.8,10.8,30.48,NW,326,5.0,7.0,57,0.00,,SKC,0.00,VWS V14.01,2014-01-03 21:45:00,
2014-01-03 16:50:00,23.7,10.3,30.48,NNW,345,3.0,7.0,56,0.00,,SKC,0.00,VWS V14.01,2014-01-03 21:50:00,
2014-01-03 16:55:00,23.7,10.3,30.47,NW,309,5.0,7.0,56,0.00,,SKC,0.00,VWS V14.01,2014-01-03 21:55:00,
2014-01-03 17:00:00,23.5,10.5,30.47,North,6,2.0,3.0,57,0.00,,SKC,0.00,VWS V14.01,2014-01-03 22:00:00,
2014-01-03 17:05:00,23.2,10.2,30.47,NNW,345,3.0,6.0,57,0.00,,SKC,0.00,VWS V14.01,2014-01-03 22:05:00,
2014-01-03 17:10:00,23.0,10.4,30.47,North,350,2.0,6.0,58,0.00,,SKC,0.00,VWS V14.01,2014-01-03 22:10:00,
2014-01-03 17:15:00,22.9,10.3,30.47,NNW,347,2.0,6.0,58,0.00,,SKC,0.00,VWS V14.01,2014-01-03 22:15:00,
2014-01-03 17:20:00,22.6,10.4,30.47,NNW,347,4.0,6.0,59,0.00,,SKC,0.00,VWS V14.01,2014-01-03 22:20:00,
2014-01-03 17:25:00,22.4,10.3,30.47,NNE,25,2.0,6.0,59,0.00,,SKC,0.00,VWS V14.01,2014-01-03 22:25:00,
2014-01-03 17:30:00,22.2,10.1,30.47,North,356,1.0,2.0,59,0.00,,SKC,0.00,VWS V14.01,2014-01-03 22:30:00,
2014-01-03 17:35:00,22.0,10.2,30.47,NNW,333,0.0,2.0,60,0.00,,SKC,0.00,VWS V14.01,2014-01-03 22:35:00,
2014-01-03 17:40:00,21.8,10.1,30.47,NE,38,0.0,3.0,60,0.00,,SKC,0.00,VWS V14.01,2014-01-03 22:40:00,
2014-01-03 17:45:00,21.6,10.2,30.47,NE,38,0.0,3.0,61,0.00,,SKC,0.00,VWS V14.01,2014-01-03 22:45:00,
2014-01-03 17:50:00,21.2,10.6,30.47,NE,38,0.0,3.0,63,0.00,,SKC,0.00,VWS V14.01,2014-01-03 22:50:00,
2014-01-03 17:55:00,20.7,10.1,30.47,NE,39,0.0,3.0,63,0.00,,SKC,0.00,VWS V14.01,2014-01-03 22:55:00,
2014-01-03 18:00:00,20.3,10.1,30.47,NE,38,0.0,0.0,64,0.00,,SKC,0.00,VWS V14.01,2014-01-03 23:00:00,
2014-01-03 18:05:00,20.1,10.2,30.47,NE,38,0.0,1.0,65,0.00,,SKC,0.00,VWS V14.01,2014-01-03 23:05:00,
2014-01-03 18:10:00,20.0,10.1,30.47,NE,39,0.0,1.0,65,0.00,,SKC,0.00,VWS V14.01,2014-01-03 23:10:00,
2014-01-03 18:15:00,19.6,10.4,30.47,NE,38,0.0,1.0,67,0.00,,SKC,0.00,VWS V14.01,2014-01-03 23:15:00,
2014-01-03 18:20:00,19.1,10.6,30.47,NE,38,0.0,1.0,69,0.00,,SKC,0.00,VWS V14.01,2014-01-03 23:20:00,
2014-01-03 18:25:00,18.8,10.6,30.47,NE,38,0.0,1.0,70,0.00,,SKC,0.00,VWS V14.01,2014-01-03 23:25:00,
2014-01-03 18:30:00,18.5,10.7,30.47,NE,38,0.0,0.0,71,0.00,,SKC,0.00,VWS V14.01,2014-01-03 23:30:00,
2014-01-03 18:35:00,18.3,10.8,30.48,NE,38,0.0,0.0,72,0.00,,SKC,0.00,VWS V14.01,2014-01-03 23:35:00,
2014-01-03 18:40:00,18.0,10.5,30.48,NE,39,0.0,0.0,72,0.00,,SKC,0.00,VWS V14.01,2014-01-03 23:40:00,
2014-01-03 18:45:00,17.9,10.4,30.48,NE,38,0.0,1.0,72,0.00,,SKC,0.00,VWS V14.01,2014-01-03 23:45:00,
2014-01-03 18:50:00,17.8,10.6,30.48,NE,38,0.0,1.0,73,0.00,,SKC,0.00,VWS V14.01,2014-01-03 23:50:00,
2014-01-03 18:55:00,17.8,10.6,30.48,NE,39,0.0,1.0,73,0.00,,SKC,0.00,VWS V14.01,2014-01-03 23:55:00,
2014-01-03 19:00:00,17.8,10.9,30.48,NE,39,0.0,0.0,74,0.00,,SKC,0.00,VWS V14.01,2014-01-04 00:00:00,
2014-01-03 19:05:00,17.6,10.7,30.48,NE,38,0.0,0.0,74,0.00,,SKC,0.00,VWS V14.01,2014-01-04 00:05:00,
2014-01-03 19:10:00,17.4,10.9,30.49,NE,38,0.0,0.0,75,0.00,,SKC,0.00,VWS V14.01,2014-01-04 00:10:00,
2014-01-03 19:15:00,17.3,10.8,30.49,NE,38,0.0,0.0,75,0.00,,SKC,0.00,VWS V14.01,2014-01-04 00:15:00,
2014-01-03 19:18:00,17.3,11.1,30.49,NE,39,0.0,0.0,76,0.00,,SKC,0.00,VWS V14.01,2014-01-04 00:18:00,
2014-01-03 19:23:00,17.2,11.2,30.49,NE,38,0.0,1.0,77,0.00,,SKC,0.00,VWS V14.01,2014-01-04 00:23:00,
2014-01-03 19:28:00,17.4,10.9,30.49,NE,38,0.0,1.0,75,0.00,,SKC,0.00,VWS V14.01,2014-01-04 00:28:00,
2014-01-03 19:30:00,17.3,10.8,30.49,NE,38,0.0,1.0,75,0.00,,SKC,0.00,VWS V14.01,2014-01-04 00:30:00,
2014-01-03 19:33:00,17.2,10.9,30.49,NE,38,0.0,0.0,76,0.00,,SKC,0.00,VWS V14.01,2014-01-04 00:33:00,
2014-01-03 19:38:00,17.0,11.1,30.49,NE,38,0.0,1.0,77,0.00,,SKC,0.00,VWS V14.01,2014-01-04 00:38:00,
2014-01-03 19:43:00,16.7,11.1,30.49,NE,38,0.0,1.0,78,0.00,,SKC,0.00,VWS V14.01,2014-01-04 00:43:00,
2014-01-03 19:48:00,16.5,10.9,30.49,NE,39,0.0,1.0,78,0.00,,SKC,0.00,VWS V14.01,2014-01-04 00:48:00,
2014-01-03 19:53:00,16.3,10.7,30.49,NE,39,0.0,1.0,78,0.00,,SKC,0.00,VWS V14.01,2014-01-04 00:53:00,
2014-01-03 19:58:00,16.2,10.8,30.50,NE,38,0.0,1.0,79,0.00,,SKC,0.00,VWS V14.01,2014-01-04 00:58:00,
2014-01-03 20:00:00,16.1,11.0,30.49,NE,38,0.0,1.0,80,0.00,,SKC,0.00,VWS V14.01,2014-01-04 01:00:00,
2014-01-03 20:03:00,16.1,10.8,30.50,NE,38,0.0,0.0,79,0.00,,SKC,0.00,VWS V14.01,2014-01-04 01:03:00,
2014-01-03 20:08:00,16.2,10.8,30.50,NE,38,0.0,0.0,79,0.00,,SKC,0.00,VWS V14.01,2014-01-04 01:08:00,
2014-01-03 20:13:00,16.0,10.6,30.50,NE,38,0.0,0.0,79,0.00,,SKC,0.00,VWS V14.01,2014-01-04 01:13:00,
2014-01-03 20:18:00,15.8,10.7,30.50,NE,38,0.0,0.0,80,0.00,,SKC,0.00,VWS V14.01,2014-01-04 01:18:00,
2014-01-03 20:23:00,15.5,10.4,30.50,NE,39,0.0,0.0,80,0.00,,SKC,0.00,VWS V14.01,2014-01-04 01:23:00,
2014-01-03 20:28:00,15.1,10.1,30.50,NE,39,0.0,0.0,80,0.00,,SKC,0.00,VWS V14.01,2014-01-04 01:28:00,
2014-01-03 20:30:00,15.0,10.2,30.50,NE,39,0.0,0.0,81,0.00,,SKC,0.00,VWS V14.01,2014-01-04 01:30:00,
2014-01-03 20:33:00,14.8,10.0,30.50,NE,38,0.0,0.0,81,0.00,,SKC,0.00,VWS V14.01,2014-01-04 01:33:00,
2014-01-03 20:38:00,14.6,10.1,30.50,NE,38,0.0,0.0,82,0.00,,SKC,0.00,VWS V14.01,2014-01-04 01:38:00,
2014-01-03 20:43:00,14.5,10.3,30.51,NE,39,0.0,0.0,83,0.00,,SKC,0.00,VWS V14.01,2014-01-04 01:43:00,
2014-01-03 20:48:00,14.6,10.4,30.51,NE,39,0.0,1.0,83,0.00,,SKC,0.00,VWS V14.01,2014-01-04 01:48:00,
2014-01-03 20:53:00,14.5,10.3,30.51,NE,38,0.0,1.0,83,0.00,,SKC,0.00,VWS V14.01,2014-01-04 01:53:00,
2014-01-03 20:58:00,14.4,10.2,30.51,NE,39,0.0,1.0,83,0.00,,SKC,0.00,VWS V14.01,2014-01-04 01:58:00,
2014-01-03 21:00:00,14.3,10.1,30.51,NE,38,0.0,1.0,83,0.00,,SKC,0.00,VWS V14.01,2014-01-04 02:00:00,
2014-01-03 21:03:00,14.3,10.4,30.51,NE,38,0.0,0.0,84,0.00,,SKC,0.00,VWS V14.01,2014-01-04 02:03:00,
2014-01-03 21:08:00,14.1,9.9,30.51,NE,38,0.0,0.0,83,0.00,,SKC,0.00,VWS V14.01,2014-01-04 02:08:00,
2014-01-03 21:13:00,14.1,10.2,30.51,NE,38,0.0,0.0,84,0.00,,SKC,0.00,VWS V14.01,2014-01-04 02:13:00,
2014-01-03 21:18:00,14.1,10.4,30.51,NE,38,0.0,0.0,85,0.00,,SKC,0.00,VWS V14.01,2014-01-04 02:18:00,
2014-01-03 21:23:00,14.0,10.1,30.51,NE,38,0.0,0.0,84,0.00,,SKC,0.00,VWS V14.01,2014-01-04 02:23:00,
2014-01-03 21:28:00,13.7,9.8,30.51,NE,38,0.0,0.0,84,0.00,,SKC,0.00,VWS V14.01,2014-01-04 02:28:00,
2014-01-03 21:30:00,13.7,10.0,30.51,NE,38,0.0,0.0,85,0.00,,SKC,0.00,VWS V14.01,2014-01-04 02:30:00,
2014-01-03 21:33:00,13.7,10.3,30.51,NE,38,0.0,0.0,86,0.00,,SKC,0.00,VWS V14.01,2014-01-04 02:33:00,
2014-01-03 21:38:00,13.8,10.4,30.51,NE,38,0.0,1.0,86,0.00,,SKC,0.00,VWS V14.01,2014-01-04 02:38:00,
2014-01-03 21:43:00,13.8,10.4,30.51,NE,38,0.0,1.0,86,0.00,,SKC,0.00,VWS V14.01,2014-01-04 02:43:00,
2014-01-03 21:48:00,13.7,10.3,30.51,NE,38,0.0,1.0,86,0.00,,SKC,0.00,VWS V14.01,2014-01-04 02:48:00,
2014-01-03 21:52:00,13.7,10.6,30.51,NE,38,0.0,1.0,87,0.00,,SKC,0.00,VWS V14.01,2014-01-04 02:52:00,
2014-01-03 21:57:00,13.7,10.6,30.50,NE,38,0.0,1.0,87,0.00,,SKC,0.00,VWS V14.01,2014-01-04 02:57:00,
2014-01-03 22:00:00,13.6,10.5,30.51,NE,38,0.0,1.0,87,0.00,,SKC,0.00,VWS V14.01,2014-01-04 03:00:00,
2014-01-03 22:02:00,13.4,10.3,30.50,NE,38,0.0,0.0,87,0.00,,SKC,0.00,VWS V14.01,2014-01-04 03:02:00,
2014-01-03 22:07:00,13.3,10.2,30.51,NE,39,0.0,0.0,87,0.00,,SKC,0.00,VWS V14.01,2014-01-04 03:07:00,
2014-01-03 22:12:00,13.3,10.2,30.51,NE,39,0.0,0.0,87,0.00,,SKC,0.00,VWS V14.01,2014-01-04 03:12:00,
2014-01-03 22:17:00,13.4,10.5,30.52,NE,38,0.0,0.0,88,0.00,,SKC,0.00,VWS V14.01,2014-01-04 03:17:00,
2014-01-03 22:22:00,13.5,10.6,30.51,NE,38,0.0,1.0,88,0.00,,SKC,0.00,VWS V14.01,2014-01-04 03:22:00,
2014-01-03 22:27:00,13.3,10.2,30.52,NE,39,0.0,1.0,87,0.00,,SKC,0.00,VWS V14.01,2014-01-04 03:27:00,
2014-01-03 22:30:00,13.2,10.1,30.52,NE,39,0.0,1.0,87,0.00,,SKC,0.00,VWS V14.01,2014-01-04 03:30:00,
2014-01-03 22:32:00,13.0,9.9,30.52,NE,38,0.0,0.0,87,0.00,,SKC,0.00,VWS V14.01,2014-01-04 03:32:00,
2014-01-03 22:37:00,12.8,9.7,30.52,NE,38,0.0,0.0,87,0.00,,SKC,0.00,VWS V14.01,2014-01-04 03:37:00,
2014-01-03 22:42:00,12.6,9.7,30.52,NE,39,0.0,0.0,88,0.00,,SKC,0.00,VWS V14.01,2014-01-04 03:42:00,
2014-01-03 22:47:00,12.3,9.4,30.52,NE,38,0.0,0.0,88,0.00,,SKC,0.00,VWS V14.01,2014-01-04 03:47:00,
2014-01-03 22:52:00,12.1,9.2,30.52,NE,38,0.0,0.0,88,0.00,,SKC,0.00,VWS V14.01,2014-01-04 03:52:00,
2014-01-03 22:57:00,11.7,8.8,30.52,NE,38,0.0,0.0,88,0.00,,SKC,0.00,VWS V14.01,2014-01-04 03:57:00,
2014-01-03 23:00:00,11.6,8.7,30.52,NE,38,0.0,0.0,88,0.00,,SKC,0.00,VWS V14.01,2014-01-04 04:00:00,
2014-01-03 23:02:00,11.6,9.0,30.53,NE,38,0.0,0.0,89,0.00,,SKC,0.00,VWS V14.01,2014-01-04 04:02:00,
2014-01-03 23:07:00,11.8,9.4,30.53,NE,38,0.0,0.0,90,0.00,,SKC,0.00,VWS V14.01,2014-01-04 04:07:00,
2014-01-03 23:12:00,11.9,9.5,30.53,NE,38,1.0,1.0,90,0.00,,SKC,0.00,VWS V14.01,2014-01-04 04:12:00,
2014-01-03 23:17:00,11.9,9.5,30.52,NE,38,0.0,1.0,90,0.00,,SKC,0.00,VWS V14.01,2014-01-04 04:17:00,
2014-01-03 23:22:00,11.9,9.5,30.52,NE,38,0.0,1.0,90,0.00,,SKC,0.00,VWS V14.01,2014-01-04 04:22:00,
2014-01-03 23:27:00,12.1,9.7,30.52,NE,39,0.0,1.0,90,0.00,,SKC,0.00,VWS V14.01,2014-01-04 04:27:00,
2014-01-03 23:30:00,12.1,9.7,30.53,NE,38,0.0,1.0,90,0.00,,SKC,0.00,VWS V14.01,2014-01-04 04:30:00,
2014-01-03 23:32:00,12.1,9.7,30.52,NE,38,0.0,0.0,90,0.00,,SKC,0.00,VWS V14.01,2014-01-04 04:32:00,
2014-01-03 23:37:00,12.1,9.7,30.52,NE,39,0.0,1.0,90,0.00,,SKC,0.00,VWS V14.01,2014-01-04 04:37:00,
2014-01-03 23:42:00,12.1,9.7,30.52,NE,38,0.0,1.0,90,0.00,,SKC,0.00,VWS V14.01,2014-01-04 04:42:00,
2014-01-03 23:47:00,12.1,9.7,30.52,NE,38,0.0,1.0,90,0.00,,SKC,0.00,VWS V14.01,2014-01-04 04:47:00,
2014-01-03 23:52:00,11.9,9.5,30.52,NE,38,0.0,1.0,90,0.00,,SKC,0.00,VWS V14.01,2014-01-04 04:52:00,
2014-01-03 23:57:00,11.8,9.4,30.52,NE,38,0.0,1.0,90,0.00,,SKC,0.00,VWS V14.01,2014-01-04 04:57:00,